QPF
0.04 0.04 0.03 0.04 0.04 0.03 0.02 0.02 0.02 0.02 0.01 0.01 0.00 0.00 0.00 0.00 0.00 0.00 0.00 0.00 0.00 0.00 0.00 0.00 0.00 0.00 0.01 0.02 0.02 0.01 0.00 0.01 0.01 0.02 0.03 0.03 0.03 0.02 0.02 0.03 0.03 0.02 0.02
0.03 0.04 0.03 0.03 0.03 0.02 0.02 0.02 0.01 0.02 0.02 0.01 0.00 0.00 0.00 0.00 0.00 0.00 0.00 0.00 0.00 0.00 0.00 0.00 0.00 0.00 0.01 0.03 0.02 0.02 0.01 0.01 0.01 0.01 0.03 0.04 0.04 0.04 0.03 0.04 0.04 0.04 0.04
0.04 0.05 0.04 0.03 0.03 0.03 0.03 0.02 0.01 0.01 0.02 0.01 0.00 0.00 0.00 0.00 0.00 0.00 0.00 0.00 0.00 0.00 0.01 0.01 0.00 0.00 0.01 0.01 0.01 0.01 0.01 0.01 0.01 0.01 0.04 0.05 0.03 0.03 0.03 0.03 0.03 0.04 0.05
0.05 0.06 0.05 0.06 0.06 0.04 0.02 0.01 0.01 0.00 0.01 0.01 0.00 0.00 0.00 0.00 0.00 0.00 0.00 0.00 0.00 0.00 0.01 0.00 0.00 0.01 0.00 0.00 0.00 0.00 0.00 0.01 0.01 0.01 0.02 0.03 0.03 0.03 0.02 0.02 0.02 0.02 0.03
0.04 0.04 0.03 0.03 0.03 0.02 0.01 0.01 0.01 0.01 0.01 0.01 0.00 0.00 0.00 0.00 0.00 0.00 0.00 0.00 0.00 0.01 0.01 0.01 0.00 0.00 0.00 0.00 0.00 0.00 0.00 0.01 0.01 0.01 0.01 0.01 0.02 0.03 0.03 0.01 0.01 0.01 0.01
0.02 0.03 0.02 0.01 0.01 0.01 0.01 0.00 0.01 0.01 0.01 0.01 0.01 0.00 0.01 0.00 0.01 0.00 0.00 0.00 0.01 0.01 0.01 0.00 0.00 0.00 0.00 0.00 0.00 0.00 0.00 0.00 0.01 0.01 0.01 0.01 0.01 0.01 0.03 0.01 0.01 0.00 0.01
0.02 0.02 0.01 0.01 0.01 0.01 0.01 0.00 0.00 0.00 0.01 0.01 0.01 0.01 0.01 0.01 0.01 0.01 0.01 0.01 0.01 0.01 0.01 0.01 0.00 0.00 0.00 0.00 0.00 0.01 0.01 0.00 0.00 0.01 0.01 0.00 0.00 0.01 0.02 0.01 0.01 0.00 0.01
0.02 0.02 0.01 0.01 0.00 0.01 0.01 0.00 0.00 0.00 0.00 0.00 0.01 0.01 0.01 0.01 0.01 0.01 0.01 0.01 0.01 0.01 0.01 0.01 0.00 0.00 0.00 0.00 0.00 0.01 0.00 0.00 0.01 0.01 0.00 0.00 0.00 0.01 0.01 0.01 0.00 0.00 0.01
0.02 0.02 0.02 0.01 0.00 0.00 0.01 0.00 0.00 0.00 0.00 0.00 0.01 0.01 0.01 0.01 0.01 0.01 0.01 0.01 0.01 0.01 0.01 0.00 0.01 0.01 0.00 0.00 0.00 0.00 0.00 0.01 0.01 0.00 0.00 0.00 0.00 0.00 0.01 0.01 0.01 0.01 0.01
0.02 0.01 0.01 0.01 0.00 0.00 0.01 0.01 0.01 0.01 0.00 0.01 0.01 0.01 0.01 0.01 0.00 0.01 0.01 0.01 0.02 0.01 0.00 0.00 0.01 0.01 0.00 0.00 0.00 0.00 0.00 0.01 0.01 0.00 0.00 0.00 0.00 0.00 0.00 0.00 0.01 0.01 0.00
0.01 0.02 0.01 0.01 0.01 0.01 0.01 0.01 0.01 0.01 0.01 0.01 0.01 0.01 0.01 0.01 0.00 0.01 0.02 0.02 0.01 0.00 0.00 0.01 0.00 0.00 0.01 0.00 0.00 0.00 0.00 0.00 0.00 0.00 0.00 0.00 0.00 0.00 0.00 0.00 0.00 0.00 0.00
0.01 0.02 0.02 0.01 0.01 0.01 0.01 0.01 0.01 0.01 0.01 0.01 0.01 0.01 0.01 0.01 0.01 0.01 0.01 0.01 0.01 0.00 0.00 0.00 0.00 0.00 0.01 0.00 0.00 0.00 0.00 0.00 0.00 0.00 0.00 0.00 0.00 0.00 0.00 0.00 0.00 0.00 0.00
0.02 0.01 0.02 0.01 0.01 0.01 0.01 0.01 0.01 0.01 0.01 0.01 0.01 0.01 0.01 0.01 0.01 0.02 0.01 0.02 0.01 0.01 0.00 0.00 0.00 0.00 0.01 0.01 0.00 0.00 0.00 0.00 0.00 0.00 0.00 0.00 0.00 0.00 0.00 0.00 0.00 0.00 0.00
0.02 0.02 0.02 0.02 0.02 0.01 0.01 0.01 0.01 0.01 0.00 0.00 0.00 0.00 0.00 0.00 0.01 0.01 0.01 0.01 0.01 0.01 0.01 0.01 0.00 0.00 0.01 0.01 0.01 0.00 0.00 0.00 0.00 0.00 0.00 0.00 0.00 0.00 0.00 0.00 0.00 0.00 0.01
0.02 0.01 0.02 0.02 0.02 0.02 0.01 0.01 0.01 0.01 0.01 0.00 0.00 0.00 0.00 0.00 0.00 0.00 0.01 0.01 0.00 0.00 0.01 0.01 0.00 0.01 0.02 0.02 0.01 0.00 0.00 0.00 0.00 0.00 0.00 0.01 0.00 0.00 0.00 0.00 0.00 0.00 0.01
0.01 0.01 0.01 0.01 0.01 0.01 0.01 0.00 0.01 0.02 0.01 0.01 0.01 0.00 0.00 0.00 0.00 0.00 0.00 0.00 0.00 0.00 0.00 0.00 0.00 0.01 0.01 0.01 0.00 0.00 0.00 0.00 0.00 0.00 0.00 0.00 0.00 0.00 0.00 0.00 0.00 0.00 0.00
0.01 0.01 0.00 0.00 0.00 0.00 0.00 0.00 0.01 0.02 0.02 0.02 0.02 0.01 0.01 0.01 0.01 0.00 0.00 0.00 0.00 0.00 0.00 0.00 0.00 0.00 0.01 0.01 0.00 0.00 0.00 0.00 0.00 0.00 0.00 0.00 0.00 0.00 0.00 0.00 0.00 0.00 0.00
0.01 0.00 0.00 0.00 0.01 0.00 0.00 0.01 0.01 0.01 0.02 0.01 0.02 0.02 0.01 0.01 0.01 0.01 0.00 0.00 0.00 0.00 0.00 0.00 0.00 0.00 0.01 0.01 0.00 0.00 0.00 0.00 0.00 0.00 0.00 0.00 0.00 0.00 0.00 0.00 0.00 0.00 0.00
0.00 0.00 0.01 0.01 0.01 0.00 0.00 0.00 0.01 0.02 0.02 0.01 0.01 0.01 0.01 0.00 0.00 0.00 0.00 0.00 0.00 0.00 0.00 0.00 0.00 0.01 0.01 0.01 0.00 0.00 0.00 0.00 0.00 0.00 0.00 0.00 0.00 0.00 0.00 0.00 0.00 0.00 0.00
0.00 0.00 0.00 0.00 0.00 0.00 0.01 0.01 0.01 0.01 0.01 0.01 0.01 0.01 0.01 0.01 0.01 0.00 0.00 0.00 0.00 0.00 0.00 0.01 0.01 0.01 0.01 0.01 0.00 0.00 0.00 0.00 0.00 0.00 0.00 0.00 0.00 0.00 0.00 0.00 0.00 0.00 0.00
0.01 0.01 0.00 0.00 0.00 0.01 0.01 0.00 0.01 0.01 0.02 0.02 0.01 0.01 0.01 0.01 0.01 0.01 0.00 0.00 0.00 0.00 0.01 0.02 0.02 0.01 0.01 0.01 0.00 0.00 0.00 0.00 0.00 0.00 0.01 0.01 0.00 0.00 0.00 0.00 0.00 0.00 0.00
0.00 0.00 0.00 0.00 0.01 0.01 0.00 0.00 0.01 0.01 0.02 0.02 0.02 0.01 0.01 0.01 0.01 0.01 0.01 0.00 0.01 0.01 0.01 0.01 0.01 0.01 0.01 0.01 0.01 0.00 0.00 0.00 0.00 0.01 0.01 0.00 0.00 0.00 0.00 0.00 0.00 0.00 0.00
0.00 0.00 0.00 0.00 0.01 0.01 0.00 0.01 0.01 0.02 0.02 0.02 0.02 0.02 0.01 0.01 0.01 0.01 0.01 0.01 0.01 0.00 0.00 0.01 0.01 0.02 0.02 0.01 0.01 0.01 0.01 0.00 0.00 0.00 0.00 0.00 0.00 0.00 0.00 0.00 0.00 0.00 0.00
0.00 0.00 0.00 0.01 0.01 0.01 0.01 0.01 0.01 0.01 0.02 0.02 0.02 0.02 0.02 0.01 0.01 0.01 0.01 0.01 0.00 0.00 0.00 0.00 0.00 0.01 0.01 0.01 0.01 0.01 0.00 0.00 0.00 0.00 0.00 0.00 0.00 0.00 0.00 0.00 0.00 0.00 0.00
0.00 0.01 0.01 0.01 0.01 0.01 0.01 0.01 0.01 0.01 0.01 0.01 0.01 0.02 0.02 0.02 0.01 0.01 0.01 0.01 0.01 0.01 0.01 0.01 0.00 0.00 0.00 0.01 0.00 0.00 0.01 0.01 0.01 0.00 0.00 0.00 0.00 0.00 0.00 0.00 0.00 0.00 0.00
0.00 0.00 0.00 0.00 0.01 0.01 0.01 0.00 0.01 0.01 0.01 0.01 0.01 0.01 0.01 0.01 0.01 0.01 0.01 0.01 0.01 0.01 0.01 0.01 0.01 0.01 0.01 0.01 0.00 0.01 0.01 0.01 0.01 0.00 0.00 0.00 0.00 0.00 0.00 0.00 0.00 0.00 0.00
MSLP
1016.11 1015.98 1015.88 1015.81 1015.78 1015.79 1015.87 1016.01 1016.23 1016.51 1016.83 1017.14 1017.43 1017.65 1017.79 1017.84 1017.81 1017.74 1017.64 1017.55 1017.49 1017.48 1017.51 1017.57 1017.66 1017.76 1017.86 1017.96 1018.06 1018.18 1018.33 1018.53 1018.76 1019.04 1019.34 1019.64 1019.92 1020.16 1020.35 1020.47 1020.53 1020.54 1020.50
1016.37 1016.26 1016.16 1016.07 1015.99 1015.95 1015.98 1016.09 1016.31 1016.62 1017.00 1017.40 1017.78 1018.08 1018.29 1018.38 1018.37 1018.27 1018.14 1018.01 1017.92 1017.88 1017.89 1017.96 1018.05 1018.15 1018.25 1018.34 1018.42 1018.50 1018.62 1018.78 1018.99 1019.26 1019.57 1019.91 1020.24 1020.54 1020.79 1020.98 1021.10 1021.16 1021.16
1016.48 1016.44 1016.39 1016.30 1016.20 1016.12 1016.10 1016.17 1016.38 1016.71 1017.13 1017.60 1018.06 1018.44 1018.72 1018.86 1018.87 1018.78 1018.63 1018.48 1018.36 1018.29 1018.30 1018.35 1018.45 1018.55 1018.65 1018.72 1018.78 1018.84 1018.92 1019.04 1019.23 1019.49 1019.81 1020.17 1020.55 1020.91 1021.22 1021.48 1021.67 1021.78 1021.83
1016.39 1016.46 1016.48 1016.44 1016.36 1016.26 1016.21 1016.26 1016.44 1016.77 1017.22 1017.73 1018.25 1018.71 1019.06 1019.25 1019.30 1019.23 1019.09 1018.93 1018.79 1018.72 1018.71 1018.77 1018.86 1018.97 1019.06 1019.13 1019.17 1019.21 1019.27 1019.37 1019.54 1019.78 1020.10 1020.47 1020.87 1021.27 1021.63 1021.94 1022.18 1022.35 1022.44
1016.08 1016.29 1016.43 1016.48 1016.44 1016.37 1016.31 1016.34 1016.51 1016.82 1017.27 1017.81 1018.37 1018.88 1019.29 1019.54 1019.64 1019.61 1019.49 1019.34 1019.21 1019.13 1019.13 1019.18 1019.28 1019.39 1019.50 1019.57 1019.62 1019.65 1019.70 1019.78 1019.93 1020.16 1020.45 1020.81 1021.21 1021.62 1022.00 1022.34 1022.62 1022.82 1022.94
1015.58 1015.94 1016.23 1016.40 1016.45 1016.43 1016.39 1016.42 1016.57 1016.86 1017.30 1017.84 1018.42 1018.97 1019.42 1019.73 1019.88 1019.90 1019.82 1019.71 1019.60 1019.53 1019.53 1019.60 1019.71 1019.84 1019.96 1020.06 1020.12 1020.17 1020.22 1020.30 1020.43 1020.63 1020.90 1021.22 1021.59 1021.97 1022.34 1022.67 1022.96 1023.18 1023.32
1014.96 1015.48 1015.93 1016.24 1016.40 1016.45 1016.46 1016.49 1016.63 1016.90 1017.31 1017.84 1018.42 1018.98 1019.47 1019.82 1020.03 1020.11 1020.09 1020.01 1019.94 1019.90 1019.92 1020.00 1020.13 1020.29 1020.44 1020.57 1020.68 1020.76 1020.83 1020.92 1021.04 1021.21 1021.43 1021.69 1022.00 1022.32 1022.65 1022.95 1023.22 1023.44 1023.59
1014.33 1015.00 1015.59 1016.03 1016.31 1016.45 1016.51 1016.57 1016.70 1016.95 1017.33 1017.82 1018.38 1018.94 1019.45 1019.84 1020.11 1020.25 1020.29 1020.27 1020.24 1020.24 1020.29 1020.39 1020.55 1020.73 1020.92 1021.10 1021.26 1021.39 1021.50 1021.61 1021.73 1021.87 1022.04 1022.24 1022.46 1022.71 1022.96 1023.21 1023.44 1023.65 1023.81
1013.79 1014.57 1015.27 1015.83 1016.22 1016.44 1016.56 1016.65 1016.77 1017.00 1017.35 1017.80 1018.34 1018.89 1019.40 1019.83 1020.14 1020.34 1020.44 1020.49 1020.51 1020.55 1020.63 1020.76 1020.94 1021.16 1021.39 1021.62 1021.83 1022.02 1022.19 1022.33 1022.46 1022.58 1022.71 1022.84 1022.99 1023.15 1023.32 1023.50 1023.69 1023.87 1024.03
1013.41 1014.25 1015.03 1015.67 1016.13 1016.43 1016.60 1016.72 1016.86 1017.07 1017.39 1017.81 1018.31 1018.84 1019.35 1019.80 1020.16 1020.41 1020.58 1020.69 1020.76 1020.84 1020.96 1021.11 1021.32 1021.56 1021.83 1022.11 1022.39 1022.64 1022.86 1023.04 1023.20 1023.32 1023.42 1023.50 1023.58 1023.66 1023.76 1023.87 1024.01 1024.17 1024.33
1013.19 1014.04 1014.85 1015.53 1016.05 1016.40 1016.62 1016.78 1016.94 1017.15 1017.45 1017.85 1018.32 1018.83 1019.34 1019.81 1020.20 1020.51 1020.74 1020.90 1021.03 1021.16 1021.30 1021.48 1021.70 1021.97 1022.26 1022.58 1022.90 1023.20 1023.48 1023.72 1023.91 1024.05 1024.14 1024.20 1024.22 1024.25 1024.28 1024.34 1024.44 1024.58 1024.73
1013.07 1013.90 1014.70 1015.39 1015.93 1016.32 1016.59 1016.80 1017.00 1017.23 1017.54 1017.93 1018.39 1018.89 1019.39 1019.88 1020.30 1020.66 1020.95 1021.17 1021.36 1021.52 1021.69 1021.89 1022.12 1022.39 1022.69 1023.03 1023.37 1023.72 1024.05 1024.33 1024.57 1024.74 1024.84 1024.89 1024.90 1024.89 1024.88 1024.90 1024.97 1025.07 1025.21
1012.98 1013.76 1014.51 1015.18 1015.73 1016.16 1016.49 1016.76 1017.02 1017.30 1017.64 1018.04 1018.50 1019.00 1019.52 1020.02 1020.48 1020.88 1021.23 1021.51 1021.75 1021.96 1022.16 1022.36 1022.59 1022.85 1023.14 1023.47 1023.83 1024.19 1024.55 1024.87 1025.14 1025.35 1025.48 1025.55 1025.56 1025.53 1025.51 1025.50 1025.53 1025.61 1025.73
1012.79 1013.51 1014.21 1014.85 1015.41 1015.89 1016.29 1016.64 1016.99 1017.34 1017.74 1018.18 1018.66 1019.18 1019.71 1020.23 1020.73 1021.18 1021.59 1021.93 1022.23 1022.48 1022.71 1022.92 1023.13 1023.37 1023.63 1023.93 1024.27 1024.62 1024.98 1025.32 1025.62 1025.86 1026.03 1026.12 1026.14 1026.12 1026.09 1026.06 1026.06 1026.11 1026.20
1012.44 1013.09 1013.74 1014.36 1014.95 1015.48 1015.97 1016.44 1016.89 1017.35 1017.82 1018.32 1018.84 1019.39 1019.94 1020.50 1021.03 1021.54 1022.00 1022.41 1022.77 1023.07 1023.33 1023.54 1023.74 1023.94 1024.16 1024.41 1024.70 1025.02 1025.36 1025.70 1026.00 1026.26 1026.45 1026.57 1026.62 1026.61 1026.56 1026.52 1026.50 1026.51 1026.56
1011.86 1012.46 1013.08 1013.71 1014.34 1014.95 1015.56 1016.15 1016.73 1017.30 1017.88 1018.45 1019.03 1019.61 1020.20 1020.78 1021.36 1021.91 1022.44 1022.91 1023.33 1023.69 1023.97 1024.20 1024.39 1024.55 1024.72 1024.91 1025.13 1025.39 1025.68 1025.99 1026.28 1026.54 1026.75 1026.88 1026.94 1026.94 1026.90 1026.84 1026.78 1026.75 1026.74
1011.09 1011.66 1012.28 1012.93 1013.62 1014.34 1015.07 1015.80 1016.52 1017.22 1017.90 1018.55 1019.19 1019.81 1020.43 1021.04 1021.66 1022.26 1022.84 1023.39 1023.87 1024.27 1024.60 1024.84 1025.02 1025.15 1025.26 1025.38 1025.53 1025.72 1025.95 1026.21 1026.48 1026.72 1026.92 1027.06 1027.12 1027.13 1027.07 1026.99 1026.91 1026.83 1026.77
1010.19 1010.76 1011.40 1012.10 1012.88 1013.71 1014.56 1015.43 1016.29 1017.11 1017.89 1018.62 1019.31 1019.97 1020.61 1021.26 1021.90 1022.55 1023.18 1023.78 1024.32 1024.78 1025.14 1025.41 1025.58 1025.69 1025.75 1025.81 1025.89 1026.01 1026.18 1026.38 1026.60 1026.82 1027.00 1027.13 1027.19 1027.19 1027.13 1027.02 1026.90 1026.78 1026.67
1009.28 1009.87 1010.55 1011.32 1012.18 1013.12 1014.10 1015.09 1016.06 1016.98 1017.85 1018.64 1019.37 1020.06 1020.73 1021.39 1022.06 1022.74 1023.41 1024.06 1024.65 1025.15 1025.56 1025.84 1026.02 1026.11 1026.15 1026.16 1026.19 1026.25 1026.36 1026.51 1026.69 1026.87 1027.04 1027.15 1027.21 1027.19 1027.11 1026.98 1026.83 1026.67 1026.52
1008.48 1009.11 1009.84 1010.68 1011.62 1012.64 1013.72 1014.80 1015.86 1016.86 1017.78 1018.62 1019.38 1020.09 1020.77 1021.45 1022.14 1022.84 1023.54 1024.22 1024.84 1025.38 1025.82 1026.12 1026.31 1026.41 1026.43 1026.42 1026.41 1026.43 1026.50 1026.62 1026.77 1026.93 1027.07 1027.17 1027.21 1027.19 1027.10 1026.95 1026.77 1026.58 1026.40
1007.90 1008.57 1009.35 1010.24 1011.24 1012.32 1013.46 1014.60 1015.71 1016.75 1017.71 1018.57 1019.35 1020.07 1020.76 1021.45 1022.15 1022.86 1023.58 1024.27 1024.92 1025.48 1025.93 1026.25 1026.46 1026.56 1026.58 1026.57 1026.55 1026.56 1026.62 1026.72 1026.85 1027.00 1027.13 1027.22 1027.26 1027.22 1027.12 1026.96 1026.77 1026.56 1026.36
1007.59 1008.30 1009.11 1010.04 1011.06 1012.17 1013.33 1014.49 1015.61 1016.66 1017.62 1018.49 1019.28 1020.02 1020.72 1021.41 1022.12 1022.84 1023.56 1024.26 1024.91 1025.47 1025.93 1026.26 1026.47 1026.59 1026.63 1026.63 1026.62 1026.65 1026.71 1026.82 1026.95 1027.10 1027.23 1027.32 1027.35 1027.31 1027.21 1027.04 1026.84 1026.62 1026.40
1007.55 1008.29 1009.12 1010.06 1011.08 1012.17 1013.31 1014.45 1015.55 1016.59 1017.54 1018.41 1019.21 1019.95 1020.66 1021.37 1022.09 1022.81 1023.53 1024.22 1024.85 1025.41 1025.85 1026.19 1026.40 1026.53 1026.58 1026.61 1026.64 1026.68 1026.78 1026.90 1027.06 1027.22 1027.36 1027.46 1027.49 1027.45 1027.33 1027.17 1026.96 1026.74 1026.52
1007.75 1008.51 1009.34 1010.25 1011.24 1012.29 1013.38 1014.47 1015.52 1016.52 1017.46 1018.32 1019.13 1019.89 1020.62 1021.35 1022.08 1022.80 1023.51 1024.19 1024.80 1025.33 1025.76 1026.07 1026.29 1026.42 1026.49 1026.55 1026.60 1026.69 1026.81 1026.97 1027.15 1027.33 1027.48 1027.59 1027.62 1027.58 1027.47 1027.30 1027.09 1026.87 1026.64
1008.10 1008.86 1009.68 1010.56 1011.49 1012.48 1013.49 1014.51 1015.51 1016.47 1017.38 1018.23 1019.05 1019.83 1020.59 1021.35 1022.09 1022.82 1023.53 1024.18 1024.77 1025.27 1025.66 1025.96 1026.16 1026.29 1026.38 1026.46 1026.55 1026.67 1026.82 1027.01 1027.22 1027.41 1027.58 1027.68 1027.72 1027.68 1027.57 1027.39 1027.19 1026.96 1026.73
1008.53 1009.29 1010.08 1010.91 1011.78 1012.69 1013.62 1014.56 1015.49 1016.40 1017.29 1018.14 1018.97 1019.78 1020.57 1021.36 1022.12 1022.86 1023.56 1024.20 1024.76 1025.23 1025.59 1025.86 1026.05 1026.18 1026.28 1026.37 1026.48 1026.63 1026.81 1027.02 1027.24 1027.44 1027.61 1027.71 1027.75 1027.70 1027.59 1027.41 1027.20 1026.97 1026.74
Thickness
5722 5724 5724 5723 5721 5720 5719 5717 5715 5715 5714 5712 5710 5709 5708 5709 5710 5711 5712 5712 5712 5712 5711 5710 5709 5708 5706 5705 5704 5702 5701 5699 5699 5697 5693 5693 5695 5696 5696 5697 5697 5697 5697
5717 5719 5720 5720 5718 5718 5716 5715 5714 5713 5712 5711 5710 5709 5707 5707 5707 5708 5709 5709 5710 5710 5709 5708 5706 5705 5704 5702 5701 5701 5698 5697 5697 5693 5688 5684 5686 5690 5692 5692 5692 5692 5693
5716 5716 5716 5716 5716 5715 5715 5715 5713 5712 5711 5711 5709 5707 5704 5704 5703 5704 5705 5706 5707 5707 5707 5706 5705 5704 5703 5700 5700 5699 5697 5694 5694 5693 5689 5682 5678 5681 5685 5686 5687 5687 5687
5718 5716 5715 5714 5714 5715 5715 5714 5712 5711 5710 5709 5707 5704 5700 5698 5699 5700 5702 5703 5704 5704 5704 5704 5703 5702 5701 5699 5699 5698 5697 5694 5691 5691 5691 5689 5686 5680 5677 5680 5681 5683 5683
5719 5717 5717 5717 5716 5716 5714 5713 5711 5710 5709 5708 5706 5703 5700 5699 5699 5699 5699 5700 5701 5701 5701 5701 5701 5700 5699 5698 5697 5696 5696 5694 5691 5689 5688 5687 5684 5682 5677 5673 5674 5676 5678
5721 5719 5718 5717 5716 5715 5713 5712 5709 5708 5707 5706 5704 5702 5700 5698 5697 5696 5696 5696 5697 5698 5699 5699 5698 5697 5697 5696 5695 5694 5693 5692 5690 5689 5687 5685 5683 5680 5677 5672 5670 5669 5671
5721 5718 5716 5715 5714 5713 5712 5710 5708 5706 5705 5704 5703 5701 5699 5698 5696 5695 5695 5694 5694 5694 5696 5696 5696 5695 5694 5694 5693 5692 5691 5690 5688 5686 5685 5684 5683 5681 5677 5673 5668 5667 5667
5722 5720 5718 5716 5715 5713 5712 5710 5707 5705 5704 5702 5701 5700 5699 5698 5696 5696 5695 5694 5693 5693 5694 5694 5694 5693 5692 5692 5691 5689 5688 5687 5686 5685 5683 5682 5681 5680 5677 5673 5668 5663 5661
5722 5720 5719 5717 5715 5713 5712 5711 5708 5705 5703 5702 5700 5699 5698 5697 5696 5695 5695 5694 5693 5693 5693 5692 5691 5690 5690 5689 5688 5686 5685 5684 5682 5681 5680 5679 5678 5677 5675 5673 5670 5664 5657
5723 5721 5719 5717 5716 5714 5713 5712 5709 5705 5703 5702 5700 5699 5698 5697 5696 5694 5693 5692 5692 5692 5691 5690 5689 5688 5687 5686 5684 5683 5682 5681 5679 5678 5677 5675 5674 5674 5673 5670 5668 5665 5660
5724 5722 5719 5718 5716 5713 5711 5709 5707 5704 5702 5701 5699 5698 5697 5696 5695 5693 5692 5691 5690 5690 5688 5687 5686 5685 5684 5683 5681 5679 5678 5677 5675 5674 5673 5671 5671 5670 5668 5667 5664 5662 5659
5725 5722 5719 5716 5713 5711 5710 5708 5706 5704 5702 5701 5699 5697 5696 5694 5693 5692 5691 5690 5689 5688 5687 5685 5684 5682 5681 5679 5678 5676 5675 5673 5671 5670 5669 5667 5667 5665 5664 5662 5660 5658 5656
5723 5720 5716 5714 5712 5710 5709 5707 5706 5705 5703 5700 5698 5696 5694 5693 5692 5691 5690 5689 5688 5686 5685 5683 5681 5679 5678 5676 5675 5674 5672 5670 5668 5667 5665 5664 5663 5661 5659 5658 5656 5654 5653
5721 5718 5714 5713 5712 5710 5709 5707 5706 5705 5703 5700 5697 5695 5693 5692 5691 5690 5689 5687 5686 5684 5682 5680 5679 5677 5676 5674 5672 5671 5668 5666 5665 5664 5663 5661 5660 5658 5656 5654 5652 5650 5647
5719 5717 5714 5713 5711 5710 5709 5707 5706 5705 5703 5699 5697 5695 5694 5692 5690 5688 5687 5685 5684 5682 5680 5678 5676 5675 5673 5672 5670 5668 5666 5663 5661 5660 5659 5658 5658 5657 5655 5652 5649 5646 5643
5720 5719 5717 5714 5712 5711 5709 5707 5706 5705 5703 5699 5696 5695 5692 5690 5688 5687 5685 5683 5681 5679 5677 5675 5673 5672 5671 5670 5669 5666 5662 5660 5657 5656 5655 5655 5654 5653 5652 5650 5648 5645 5640
5721 5720 5718 5716 5715 5713 5711 5708 5707 5705 5702 5699 5696 5694 5691 5689 5687 5686 5683 5680 5678 5676 5674 5672 5670 5669 5668 5668 5666 5664 5660 5657 5654 5653 5651 5651 5650 5648 5646 5645 5644 5641 5639
5722 5721 5720 5718 5717 5716 5713 5710 5707 5703 5700 5697 5695 5693 5690 5688 5686 5683 5681 5678 5676 5674 5671 5669 5668 5666 5666 5665 5663 5661 5657 5654 5651 5650 5648 5646 5645 5644 5642 5639 5636 5634 5632
5725 5723 5722 5720 5717 5715 5713 5709 5705 5702 5698 5696 5694 5692 5690 5687 5684 5681 5679 5677 5674 5671 5669 5668 5666 5663 5662 5662 5660 5658 5653 5650 5647 5646 5645 5643 5641 5641 5638 5634 5630 5627 5626
5724 5722 5721 5719 5715 5713 5711 5707 5703 5700 5698 5696 5695 5692 5690 5687 5683 5681 5678 5675 5673 5670 5668 5666 5664 5662 5660 5659 5657 5655 5650 5645 5643 5642 5641 5640 5638 5637 5634 5630 5625 5621 5620
5721 5721 5718 5715 5713 5712 5709 5704 5701 5699 5699 5697 5694 5691 5688 5686 5683 5679 5676 5674 5671 5668 5665 5663 5661 5659 5658 5657 5655 5652 5647 5644 5640 5638 5637 5636 5635 5633 5630 5627 5622 5619 5616
5716 5716 5713 5711 5710 5709 5706 5701 5699 5699 5697 5694 5691 5688 5686 5684 5681 5677 5673 5671 5668 5664 5661 5659 5656 5655 5655 5654 5652 5649 5646 5643 5638 5635 5634 5632 5630 5628 5625 5622 5619 5615 5611
5710 5711 5709 5707 5706 5705 5704 5699 5698 5696 5694 5690 5687 5685 5683 5681 5678 5675 5670 5667 5664 5661 5658 5655 5653 5651 5651 5650 5648 5646 5643 5640 5636 5633 5631 5628 5625 5623 5619 5617 5613 5609 5604
5704 5704 5703 5701 5700 5700 5700 5698 5696 5694 5690 5686 5683 5681 5678 5676 5674 5671 5668 5664 5661 5658 5656 5653 5650 5648 5646 5645 5644 5641 5639 5635 5632 5628 5625 5622 5619 5616 5613 5609 5606 5602 5597
5697 5698 5697 5696 5696 5696 5695 5695 5693 5690 5686 5682 5679 5677 5674 5672 5669 5667 5665 5663 5661 5660 5656 5653 5651 5646 5644 5645 5643 5639 5635 5631 5628 5623 5618 5614 5610 5607 5603 5600 5597 5594 5590
5691 5691 5691 5690 5690 5690 5689 5689 5688 5686 5682 5677 5674 5672 5669 5667 5664 5661 5657 5657 5657 5656 5655 5653 5650 5648 5646 5643 5640 5636 5633 5628 5624 5617 5612 5608 5604 5601 5597 5594 5590 5586 5583